TimeHST,TemperatureF,Dew PointF,Humidity,Sea Level PressureIn,VisibilityMPH,Wind Direction,Wind SpeedMPH,Gust SpeedMPH,PrecipitationIn,Events,Conditions,WindDirDegrees,DateUTC
12:53 AM,66.0,61.0,84,30.00,10.0,West,5.8,-,N/A,,Clear,280,2013-05-08 10:53:00
1:53 AM,64.9,61.0,87,29.98,10.0,West,6.9,-,N/A,,Clear,270,2013-05-08 11:53:00
2:53 AM,64.0,60.1,87,29.96,10.0,West,6.9,-,N/A,,Clear,270,2013-05-08 12:53:00
3:53 AM,64.0,60.1,87,29.95,10.0,WNW,8.1,-,N/A,,Clear,290,2013-05-08 13:53:00
4:53 AM,64.0,60.1,87,29.95,10.0,West,8.1,-,N/A,,Clear,280,2013-05-08 14:53:00
5:53 AM,64.0,59.0,84,29.96,10.0,West,8.1,-,N/A,,Clear,280,2013-05-08 15:53:00
6:53 AM,66.0,60.1,81,29.98,10.0,West,6.9,-,N/A,,Clear,280,2013-05-08 16:53:00
7:53 AM,73.0,62.1,68,30.00,10.0,West,4.6,-,N/A,,Clear,260,2013-05-08 17:53:00
8:53 AM,75.0,62.1,64,30.01,10.0,ENE,6.9,-,N/A,,Clear,60,2013-05-08 18:53:00
9:53 AM,77.0,63.0,62,30.02,10.0,East,6.9,-,N/A,,Clear,80,2013-05-08 19:53:00
10:53 AM,77.0,64.0,64,30.02,10.0,East,5.8,-,N/A,,Scattered Clouds,90,2013-05-08 20:53:00
11:53 AM,78.1,66.9,68,30.02,10.0,East,6.9,-,N/A,,Partly Cloudy,80,2013-05-08 21:53:00
12:53 PM,77.0,64.9,66,30.01,10.0,ESE,6.9,-,N/A,,Mostly Cloudy,110,2013-05-08 22:53:00
1:53 PM,79.0,66.0,64,29.99,10.0,East,8.1,-,N/A,,Scattered Clouds,80,2013-05-08 23:53:00
2:53 PM,75.9,64.0,67,29.98,10.0,NE,6.9,-,N/A,,Overcast,50,2013-05-09 00:53:00
3:53 PM,75.9,64.0,67,29.97,10.0,North,3.5,-,N/A,,Overcast,360,2013-05-09 01:53:00
4:53 PM,75.9,64.0,67,29.96,10.0,East,5.8,-,N/A,,Overcast,100,2013-05-09 02:53:00
5:53 PM,73.9,64.0,71,29.96,10.0,East,3.5,-,N/A,,Clear,100,2013-05-09 03:53:00
6:08 PM,73.4,64.4,73,29.97,10.0,Calm,Calm,-,N/A,,Partly Cloudy,0,2013-05-09 04:08:00
6:53 PM,73.9,64.0,71,29.98,10.0,Calm,Calm,-,N/A,,Overcast,0,2013-05-09 04:53:00
7:31 PM,73.4,66.2,78,29.99,10.0,WNW,4.6,-,N/A,,Overcast,290,2013-05-09 05:31:00
7:53 PM,72.0,66.0,81,29.99,10.0,WNW,5.8,-,N/A,,Overcast,290,2013-05-09 05:53:00
8:25 PM,73.4,66.2,78,30.01,10.0,WNW,4.6,-,N/A,,Overcast,300,2013-05-09 06:25:00
8:53 PM,73.0,66.0,79,30.01,10.0,WNW,5.8,-,N/A,,Overcast,290,2013-05-09 06:53:00
9:28 PM,71.6,66.2,83,30.03,10.0,WNW,5.8,-,N/A,,Overcast,290,2013-05-09 07:28:00
9:53 PM,72.0,66.0,81,30.03,10.0,WNW,4.6,-,N/A,,Overcast,290,2013-05-09 07:53:00
10:53 PM,71.1,66.0,84,30.04,10.0,West,5.8,-,N/A,,Overcast,270,2013-05-09 08:53:00
11:53 PM,71.1,66.0,84,30.03,10.0,West,5.8,-,N/A,,Overcast,280,2013-05-09 09:53:00